This is the latest recevied weather packets stored in our database for station/object K5BOU. If no packets are shown the sender has not sent any weather packets the latest 10 day(s).
| Time | Temp. | Humidity | Pressure | Rain* | Wind** | Luminosity | Snow |
|---|---|---|---|---|---|---|---|
| 1788180026 | 23.89° C | 99% | 1014.4 hPa | 0 mm | - | 28 W/m² | - |
| 1788179725 | 23.33° C | 99% | 1014.2 hPa | 0 mm | - | 21 W/m² | - |
| 1788179420 | 23.33° C | 99% | 1014.2 hPa | 0 mm | - | 14 W/m² | - |
| 1788179120 | 23.33° C | 99% | 1014 hPa | 0 mm | - | 14 W/m² | - |
| 1788178815 | 23.33° C | 99% | 1014.1 hPa | 0 mm | - | 12 W/m² | - |
| 1788178510 | 23.33° C | 99% | 1013.9 hPa | 0 mm | - | 8 W/m² | - |
| 1788178206 | 23.33° C | 99% | 1013.8 hPa | 0 mm | - | 4 W/m² | - |
| 1788177905 | 23.33° C | 99% | 1013.9 hPa | 0 mm | - | 3 W/m² | - |
| 1788177601 | 23.33° C | 99% | 1013.8 hPa | 0 mm | - | 0 W/m² | - |
| 1788177297 | 23.33° C | 99% | 1013.8 hPa | 0 mm | - | 0 W/m² | - |
| 1788176991 | 23.33° C | 99% | 1013.9 hPa | 0 mm | - | 0 W/m² | - |
| 1788176690 | 23.33° C | 99% | 1013.9 hPa | 0 mm | - | 0 W/m² | - |
| 1788176386 | 23.33° C | 99% | 1013.9 hPa | 0 mm | - | 0 W/m² | - |
| 1788176084 | 23.33° C | 99% | 1014 hPa | 0 mm | - | 0 W/m² | - |
| 1788175780 | 23.89° C | 99% | 1013.7 hPa | 0 mm | - | 0 W/m² | - |
| 1788175480 | 23.33° C | 99% | 1014 hPa | 0 mm | - | 0 W/m² | - |
| 1788175175 | 23.33° C | 99% | 1013.7 hPa | 0 mm | - | 0 W/m² | - |
| 1788174871 | 23.33° C | 99% | 1013.8 hPa | 0 mm | - | 0 W/m² | - |
| 1788174567 | 23.33° C | 99% | 1013.7 hPa | 0 mm | - | 0 W/m² | - |
| 1788174262 | 23.33° C | 99% | 1014 hPa | 0 mm | - | 0 W/m² | - |
| 1788173960 | 23.89° C | 99% | 1013.7 hPa | 0 mm | - | 0 W/m² | - |
| 1788173656 | 23.89° C | 99% | 1013.8 hPa | 0 mm | - | 0 W/m² | - |
| 1788173351 | 23.89° C | 99% | 1013.7 hPa | 0 mm | - | 0 W/m² | - |
| 1788173047 | 23.33° C | 99% | 1013.5 hPa | 0 mm | - | 0 W/m² | - |
| 1788172743 | 23.89° C | 99% | 1013.8 hPa | 0 mm | - | 0 W/m² | - |
* Rain latest hour (hover to see other rain measurements)
** Current wind speed in m/s (hover to see current wind gust speed)